Lafayette, LA

8:54 PM CDT on July 22, 2017 (GMT -0500)
Lafayette Regional

Weather History for KLFT - May, 2012

Change the Weather History Date:

Friday, May 4, 2012

  Actual Average Record
Temperature  
Mean Temperature 80 °F 74 °F  
Max Temperature 89 °F 84 °F 95 °F (1952)
Min Temperature 71 °F 64 °F 44 °F (1954)
Cooling Degree Days 15 9  
Month to date cooling degree days 55 34  
Year to date cooling degree days 497 288  
Growing Degree Days 30 (Base 50)    
Moisture  
Dew Point 70 °F    
Average Humidity 73    
Maximum Humidity 93    
Minimum Humidity 53    
Precipitation  
Precipitation 0.00 in 0.15 in 1.73 in (1944)
Month to date precipitation 0.65 0.57  
Year to date precipitation 22.98 18.41  
Sea Level Pressure  
Sea Level Pressure 30.00 in    
Wind  
Wind Speed 3 mph (SSW)    
Max Wind Speed 10 mph    
Max Gust Speed 13 mph    
Visibility 10 miles    
Events      
T = Trace of Precipitation, MM = Missing Value Source: NWS Daily Summary

Daily Weather History Graph

Daily Weather History Graph

Search for Another Location

Airport or City:

Trip Planner

Search our weather history database for the weather conditions in past years. The results will help you decide how hot, cold, wet, or windy it might be!

Date:

Astronomy

May. 04, 2012 Rise Set
Actual Time 6:21 AM CDT 7:47 PM CDT
Civil Twilight 5:56 AM CDT 8:13 PM CDT
Nautical Twilight 5:25 AM CDT 8:44 PM CDT
Astronomical Twilight 4:53 AM CDT 9:16 PM CDT
Moon 6:29 PM CDT (5/4) 4:57 AM CDT (5/4)
Length of Visible Light 14h 17m
Length of Day
13h 26m
Waxing Gibbous, 97% of the Moon is Illuminated
May 4
Waxing Gibbous
May 5
Full
May 12
Last Quarter
May 20
New
May 28
First Quarter

Hourly Weather History & Observations

Time (CDT) Temp. Heat Index Dew Point Humidity Pressure Visibility Wind Dir Wind Speed Gust Speed Precip Events Conditions
12:53 AM 75.0 °F - 71.1 °F 87% 30.02 in 10.0 mi SW 3.5 mph - N/A   Mostly Cloudy
1:53 AM 73.9 °F - 70.0 °F 87% 30.00 in 10.0 mi Calm Calm - N/A   Clear
2:53 AM 73.9 °F - 71.1 °F 91% 29.99 in 10.0 mi Calm Calm - N/A   Clear
3:53 AM 73.0 °F - 70.0 °F 90% 29.99 in 10.0 mi Calm Calm - N/A   Partly Cloudy
4:53 AM 72.0 °F - 70.0 °F 93% 29.99 in 10.0 mi Calm Calm - N/A   Clear
5:53 AM 72.0 °F - 70.0 °F 93% 30.00 in 6.0 mi Calm Calm - N/A   Clear
6:53 AM 72.0 °F - 70.0 °F 93% 30.02 in 3.0 mi Calm Calm - N/A   Clear
7:53 AM 75.2 °F - 71.6 °F 89% 30.02 in 7.0 mi Calm Calm - N/A   Clear
8:53 AM 78.1 °F - 71.1 °F 79% 30.03 in 10.0 mi South 3.5 mph - N/A   Partly Cloudy
9:26 AM 80.6 °F 83.9 °F 69.8 °F 70% 30.03 in 10.0 mi SE 4.6 mph - N/A   Mostly Cloudy
9:53 AM 80.1 °F 82.9 °F 69.1 °F 69% 30.05 in 10.0 mi South 5.8 mph - N/A   Mostly Cloudy
10:45 AM 80.6 °F 83.2 °F 68.0 °F 65% 30.05 in 10.0 mi Calm Calm - N/A   Mostly Cloudy
10:53 AM 84.0 °F 88.4 °F 70.0 °F 63% 30.05 in 10.0 mi SSE 4.6 mph - N/A   Mostly Cloudy
11:00 AM 82.4 °F 86.3 °F 69.8 °F 66% 30.04 in 10.0 mi Calm Calm - N/A   Partly Cloudy
11:07 AM 84.2 °F 88.4 °F 69.8 °F 62% 30.05 in 10.0 mi SSW 5.8 mph - N/A   Mostly Cloudy
11:53 AM 82.9 °F 87.0 °F 70.0 °F 65% 30.03 in 10.0 mi Variable 3.5 mph - N/A   Mostly Cloudy
12:53 PM 84.9 °F 88.2 °F 68.0 °F 57% 30.02 in 10.0 mi Calm Calm - N/A   Mostly Cloudy
1:53 PM 84.9 °F 88.2 °F 68.0 °F 57% 30.01 in 10.0 mi Calm Calm - N/A   Mostly Cloudy
2:53 PM 87.1 °F 90.6 °F 68.0 °F 53% 30.00 in 10.0 mi South 6.9 mph - N/A   Partly Cloudy
3:53 PM 88.0 °F 91.4 °F 68.0 °F 51% 29.97 in 10.0 mi SSW 5.8 mph - N/A   Scattered Clouds
4:53 PM 86.0 °F 90.1 °F 69.1 °F 57% 29.96 in 10.0 mi Variable 4.6 mph - N/A   Scattered Clouds
5:53 PM 86.0 °F 89.4 °F 68.0 °F 55% 29.96 in 10.0 mi SSE 5.8 mph - N/A   Clear
6:53 PM 84.0 °F 87.0 °F 68.0 °F 58% 29.96 in 10.0 mi SSW 6.9 mph - N/A   Clear
7:53 PM 81.0 °F 84.1 °F 69.1 °F 67% 29.96 in 10.0 mi SSW 8.1 mph - N/A   Clear
8:53 PM 78.1 °F - 69.1 °F 74% 29.96 in 10.0 mi SSW 5.8 mph - N/A   Clear
9:53 PM 77.0 °F - 70.0 °F 79% 29.97 in 10.0 mi SSW 5.8 mph - N/A   Clear
10:53 PM 77.0 °F - 70.0 °F 79% 29.98 in 10.0 mi SW 4.6 mph - N/A   Clear
11:53 PM 75.0 °F - 71.1 °F 87% 29.99 in 10.0 mi SSW 4.6 mph - N/A   Clear